Regional Weather Roundup
Issued by NWS Cleveland, OH

Home | Current Version | Previous Version | Graphics & Text | Print | Product List | Glossary On
Versions: 1 2 3 4 5 6 7 8 9 10 11 12 13 14 15 16 17 18 19 20 21 22 23 24 25 26 27 28 29 30 31 32 33 34 35 36 37 38 39 40 41 42 43 44 45 46 47 48 49 50
000
ASUS41 KCLE 271312
RWRCLE
OHIO REGIONAL WEATHER ROUNDUP
NATIONAL WEATHER SERVICE WILMINGTON, OH
900 AM EDT MON MAR 27 2017

NOTE: "FAIR" INDICATES FEW OR NO CLOUDS BELOW 12,000 FEET WITH NO
SIGNIFICANT WEATHER AND/OR OBSTRUCTIONS TO VISIBILITY.

OHZ001>008-015>018-024>027-034-035-043-044-271400-
   NORTHWEST OHIO

CITY           SKY/WX    TMP DP  RH WIND       PRES   REMARKS
DEFIANCE       CLOUDY    51  47  86 W8        29.96R
FINDLAY        CLOUDY    54  49  83 SW9       29.95R
TOLEDO EXPRESS CLOUDY    52  50  93 SW12      29.94R
TOLEDO EXEC    CLOUDY    53  52  96 SW8       29.95R
LIMA           CLOUDY    52  50  93 SW7       29.97R
$$

OHZ009>014-019>023-028>033-038-089-271400-
   NORTHEAST OHIO

CITY           SKY/WX    TMP DP  RH WIND       PRES   REMARKS
CLE-HOPKINS    CLOUDY    56  49  77 SW9       29.96S
CLE-LAKEFRONT  CLOUDY    56  50  80 SW10      29.93R
CUY CO. ARPT   CLOUDY    55  52  88 SW12      29.94S
LORAIN-ELYRIA  CLOUDY    53  48  83 SW8       29.96R
ASHTABULA      CLOUDY    54  52  93 SW7       29.94R
AKRON-CANTON   PTSUNNY   55  49  80 SW10      29.96S
WOOSTER        CLOUDY    53  49  86 SW8       29.97R
MANSFIELD      CLOUDY    52  50  93 SW9       29.97R
YOUNGSTOWN     CLOUDY    54  50  86 SW8       29.96S
$$

OHZ042-051>053-060>062-070>072-077>081-271400-
  SOUTHWEST OHIO

CITY           SKY/WX    TMP DP  RH WIND       PRES   REMARKS
CINC-COVINGTON FAIR      50  50 100 CALM      29.99S
CINC-LUNKEN    FOG       46  46 100 CALM      30.02S VSB 1/4
HAMILTON       FAIR      50  50 100 CALM      30.01S FOG
DAYTON         FAIR      52  49  89 S7        29.99R
WRIGHT-PAT AFB PTSUNNY   53  53 100 S5        29.99R
DAYTON GENERAL FAIR      51  50  96 S6        29.99S FOG
WILMINGTON     FAIR      50  50 100 CALM      30.00R FOG
$$

OHZ036-037-039>041-045>050-054>059-063>069-073>076-082>088-271400-
  CENTRAL AND SOUTHEAST OHIO

CITY           SKY/WX    TMP DP  RH WIND       PRES   REMARKS
COLUMBUS       CLOUDY    52  51  97 S5        30.00R FOG
OSU AIRPORT    CLOUDY    52  51  97 SW6       29.99R
BOLTON FIELD   CLOUDY    50  50 100 SW5       30.01R FOG
RICKENBACK AFB CLOUDY    50  50 100 SW5       30.00R FOG
NEWARK         CLOUDY    51  50  96 S3        30.00R FOG
MARION         CLOUDY    51  48  89 SW10      29.98R
LANCASTER      FAIR      54  52  93 SW6       30.01R
ZANESVILLE     FAIR      54  51  90 SW5       30.00R
NEW PHILLY     CLOUDY    54  51  90 VRB5      29.99S
$$



USA.gov is the U.S. government's official web portal to all federal, state and local government web resources and services.